Location: Kalberh�ni
(46.4610°N, 7.2453°E)
Time: 13:23:40
(UTC+00:00)

Lacrosse 4 Rocket - Pass Details

Date: 23 October 2021
Orbit: 537 x 619 km, 68.0° (Epoch: 04 December)

Event Time Altitude Azimuth Distance (km) Brightness Sun altitude
Rises 19:01:28 0° 318° (NW) 2,818 5.7 -26.6°
Reaches altitude 10° 19:03:56 10° 306° (NW) 1,928 4.9 -27.0°
Maximum altitude 19:07:34 27° 249° (WSW) 1,175 3.4 -27.7°
Enters shadow 19:09:23 20° 212° (SSW) 1,405 3.5 -28.0°
